Flag for Germany Weather past 2 weeks in Emsdetten, North Rhine-Westphalia, Germany

Now
55 °F

Passing clouds.


Feels Like: 53 °F
Forecast: 43 / 50 °F
Wind: 8 mph from Southwest

Location: Muenster / Osnabrueck

Current Time: Oct 21, 2014 at 5:49:58 AM

Latest Report: Oct 21, 2014 at 5:20 AM


Visibility: N/A

Pressure: 29.80 "Hg

Humidity: 88%

Dew point: 52 °F

Location of EmsdettenLocation

Historic Weather in Emsdetten — Graph

°F

Emsdetten temperature yesterday

Maximum temperature yesterday: 63 °F (at 3:50 PM)
Minimum temperature yesterday: 55 °F (at 11:50 PM)
Average temperature yesterday: 59 °F

Past Weeks' High & Low Weather Summary

 TemperatureHumidityPressure
High73 °F (Oct 19, 1:50 PM)100% (Oct 6, 4:20 AM)30.09 "Hg (Oct 6, 4:20 AM)
Low45 °F (Oct 11, 7:20 AM)52% (Oct 14, 2:20 PM)29.50 "Hg (Oct 7, 11:20 AM)
Average57 °F87%29.82 "Hg
* Reported Oct 6 4:20 AM — Oct 21 4:20 AM, Emsdetten, Weather by CustomWeather, © 2014

Note: Actual official high and low records may vary slightly from our data, if they occured in-between our weather recording intervals... More about our weather records

Advertising

Emsdetten weather history for previous 24 hours

 ConditionsComfort  
Time TempWeatherWind HumidityBarometerVisibility
4:20 AM
Oct 21
55 °FPassing clouds.9 mph88%29.83 "HgN/A
3:50 AM55 °FPartly cloudy.10 mph88%29.83 "HgN/A
3:20 AM55 °FPartly cloudy.8 mph88%29.83 "HgN/A
2:50 AM54 °FPassing clouds.8 mph94%29.86 "HgN/A
2:20 AM54 °FPartly cloudy.7 mph94%29.86 "HgN/A
1:50 AM54 °FPartly cloudy.7 mph88%29.86 "HgN/A
1:20 AM55 °FClear.7 mph82%29.86 "Hg10 mi
12:50 AM55 °FClear.7 mph82%29.89 "Hg10 mi
12:20 AM55 °FPartly cloudy.7 mph82%29.89 "HgN/A
11:50 PM
Oct 20
55 °FClear.7 mph82%29.89 "Hg10 mi
11:20 PM57 °FClear.7 mph82%29.89 "Hg10 mi
10:50 PM57 °FClear.7 mph82%29.89 "Hg10 mi
10:20 PM57 °FPartly cloudy.7 mph82%29.89 "HgN/A
9:50 PM57 °FPassing clouds.9 mph77%29.92 "HgN/A
9:20 PM57 °FPassing clouds.9 mph77%29.92 "HgN/A
8:50 PM57 °FPassing clouds.10 mph77%29.92 "HgN/A
8:20 PM57 °FPassing clouds.10 mph82%29.92 "HgN/A
7:50 PM59 °FPassing clouds.7 mph77%29.92 "HgN/A
7:20 PM59 °FBroken clouds.7 mph77%29.92 "HgN/A
6:50 PM59 °FBroken clouds.7 mph77%29.92 "HgN/A
6:20 PM59 °FBroken clouds.7 mph77%29.92 "HgN/A
5:50 PM59 °FBroken clouds.13 mph77%29.92 "HgN/A
5:20 PM61 °FBroken clouds.15 mph72%29.92 "HgN/A
4:50 PM61 °FPartly sunny.10 mph77%29.95 "HgN/A
4:20 PM61 °FPartly sunny.14 mph72%29.95 "HgN/A
3:50 PM63 °FPartly sunny.14 mph73%29.95 "HgN/A
3:20 PM61 °FPartly sunny.12 mph77%29.95 "HgN/A
2:50 PM61 °FBroken clouds.14 mph77%29.98 "HgN/A
2:20 PM61 °FPartly sunny.16 mph77%29.98 "HgN/A
1:50 PM61 °FBroken clouds.14 mph77%29.98 "HgN/A
1:20 PM61 °FPartly sunny.16 mph77%29.98 "HgN/A
12:50 PM61 °FPartly sunny.13 mph77%29.98 "HgN/A
12:20 PM59 °FPartly sunny.14 mph82%29.98 "HgN/A
11:50 AM59 °FPartly sunny.16 mph82%29.98 "HgN/A
11:20 AM59 °FSprinkles. Broken clouds.16 mph82%29.98 "HgN/A
10:50 AM59 °FBroken clouds.14 mph82%29.98 "HgN/A
10:20 AM59 °FBroken clouds.12 mph82%29.98 "HgN/A
9:50 AM57 °FBroken clouds.13 mph88%29.98 "HgN/A
9:20 AM57 °FBroken clouds.10 mph88%29.98 "HgN/A
8:50 AM57 °FSprinkles. Passing clouds.12 mph88%29.95 "HgN/A
8:20 AM57 °FPartly cloudy.13 mph88%29.95 "HgN/A
7:50 AM57 °FPartly cloudy.13 mph88%29.95 "HgN/A
7:20 AM57 °FPartly cloudy.13 mph88%29.95 "HgN/A
6:50 AM57 °FPassing clouds.14 mph88%29.95 "HgN/A
5:20 AM59 °FPassing clouds.13 mph82%29.95 "HgN/A
Weather by CustomWeather, © 2014

See weather overviewHow to use our weather pages